Location: Brachstadt
(48.6975°N, 10.6755°E)
Time: 09:28:49
(UTC+00:00)

ATLAS 2AS CENTAUR R/B - Pass Details

Date: 18 September 2020
Orbit: 939 x 1273 km, 63.7° (Epoch: 26 October)

Event Time Altitude Azimuth Distance (km) Brightness Sun altitude
Rises 21:02:17 0° 221° (SW) 4,199 5.7 -32.7°
Enters shadow 21:04:48 - 222° (SW) 3,337 5.2 -32.9°
Exits shadow 21:11:56 70° 237° (WSW) 1,349 3.0 -33.6°
Maximum altitude 21:13:02 84° 310° (NW) 1,282 2.9 -33.7°
Drops below altitude 10° 21:20:56 10° 41° (NE) 3,217 5.3 -34.5°
Sets 21:23:40 0° 42° (NE) 4,154 5.9 -34.7°
